CAPE
1471 1406 1038 773 736 886 1195 1479 1129 921 845 819 991 1006 1087 1259 1196 1202 1259 1425 1589 1502 1404 1318 1180 1525 1599 1387 1429 1047 876 1063 1088 1206 1313 1515 1515 1421 1043 807 705 756 997
1729 1674 933 767 716 855 1154 1446 1382 1195 893 981 1082 1084 1060 1092 1064 1262 1486 1468 1559 1611 1658 1333 1651 1733 1859 1842 1071 862 708 923 932 1087 1304 1653 1590 1431 963 1024 1091 508 959
2135 2274 1321 924 793 861 1121 1356 1426 1327 1150 1203 1206 1283 1230 1063 1006 1181 1466 1503 1827 2473 1978 1509 1670 1681 1436 1054 872 565 542 770 863 800 1286 1455 1323 1368 1177 1220 738 656 974
2386 2525 1956 1058 888 810 948 1198 1377 1460 1485 1492 1422 1445 1375 1280 1094 1141 1338 1490 1692 2416 2271 1653 1661 1581 1107 681 487 410 455 628 750 568 1449 1504 1448 1281 1218 1250 865 749 904
2034 2023 2497 1217 1015 758 816 963 1178 1499 1629 1593 1651 1585 1442 1400 1284 1307 1465 1539 1685 2003 1861 1608 1784 1511 699 603 531 364 342 468 606 726 1525 1334 1512 1355 1288 1265 1035 856 773
1907 2501 2386 1471 1282 944 770 923 1085 1327 1548 1666 1757 1707 1535 1414 1384 1344 1647 1846 1971 2004 2095 2005 2303 1949 1038 716 606 427 324 414 510 1184 1074 1198 1513 1331 1251 1086 1114 965 752
1800 2516 2868 1512 1507 1430 1158 869 980 1150 1480 1752 1844 1818 1753 1545 1493 1438 1509 1871 2236 2476 2427 2375 2355 2282 1616 951 716 520 324 331 667 1300 858 1269 1731 1086 1294 961 966 840 924
1774 2490 3116 2171 1673 1788 1724 1529 1167 1015 1100 1408 1832 2022 2078 1911 1700 1718 1588 1655 1981 2353 2482 2434 2251 2196 1965 1330 862 583 329 183 475 1159 794 1101 1625 1367 1399 1268 1186 567 854
857 2155 3129 3563 2958 1845 1805 1817 1712 1529 1203 1019 1143 1534 2009 2203 2122 1989 1910 1792 1869 2173 2333 2489 2393 2032 1920 1673 1040 702 341 186 510 763 810 990 1486 1341 1438 1527 1098 930 651
0 0 1218 2524 3338 3573 3528 2022 1741 1728 1669 1400 1180 1067 1307 1734 2075 2156 2142 2006 1960 2032 1927 1979 2158 2019 1934 1805 1213 777 427 278 518 980 731 959 1397 1084 1407 1816 1143 895 842
0 0 0 21 1123 2580 3268 3254 2498 1829 1814 1719 1595 1427 1293 1486 1614 1885 2084 2058 1887 1810 1740 1799 1845 2032 2055 1767 1129 808 578 670 740 706 597 772 991 1048 1149 1715 1379 1016 799
0 0 0 0 0 1138 1896 2240 3309 3282 2677 2480 2361 2410 2426 2174 2046 1864 1681 1586 1624 1830 1725 1699 1436 1465 1638 1207 976 907 1094 903 836 661 499 668 794 811 1053 1310 1303 1141 955
0 0 0 0 564 178 1136 1559 2002 2240 2620 2730 2788 2862 2766 2780 2596 2254 2229 1881 1943 1727 1983 1607 1587 1499 1309 1355 1118 1671 1498 1114 935 660 507 654 736 655 694 938 890 983 1026
0 0 0 0 0 678 1317 1697 1639 1675 1789 1878 2237 2899 2852 2695 2624 2564 2230 1902 1849 2069 1830 1674 1640 1677 1717 1936 1728 1818 1557 1202 859 602 604 650 692 616 689 979 931 904 808
0 0 0 0 0 0 55 244 2000 2596 2423 2284 2324 2332 2268 2293 2298 2170 2245 2092 2018 1771 1571 1637 1653 1614 1644 1654 1769 1922 1920 1646 1284 1111 755 581 664 593 504 869 1186 903 643
0 0 0 0 0 0 0 1 7 87 583 1168 971 547 734 994 1870 2192 2090 1910 1818 1899 1948 1760 1600 1731 1819 1833 1696 1698 1774 1905 1864 1453 982 782 653 611 418 685 1071 1339 1417
0 0 0 0 0 0 0 0 0 0 0 0 2 0 0 0 4 61 637 1417 1277 1406 1453 1566 1604 1570 1603 1654 1762 1951 1858 1723 1610 1747 1835 968 872 618 443 383 716 976 1205
0 0 0 0 0 0 0 0 0 0 0 0 0 0 0 0 0 0 0 0 45 147 283 1011 1367 1113 1086 1369 1392 1492 1546 1777 1744 1658 1495 1680 1506 1236 523 321 274 500 728
0 0 0 0 0 0 0 0 0 0 0 0 0 0 0 0 0 0 0 0 0 0 32 181 310 466 950 922 530 1105 1023 1220 1486 1569 1464 1187 1306 1200 1334 578 326 234 307
0 0 0 0 0 0 0 0 0 0 0 0 0 0 0 0 0 0 0 0 0 0 0 4 128 352 351 289 544 724 710 957 1170 1097 1005 1058 676 389 534 810 852 432 227
0 0 0 0 0 0 0 0 0 0 0 0 0 0 0 0 1 0 0 0 0 0 0 0 1 1 1 122 276 594 469 492 452 481 361 2 42 5 12 374 764 1227 951
0 0 0 0 0 0 0 0 0 0 0 0 0 0 0 0 0 0 2 3 3 2 2 3 3 2 0 0 17 104 82 160 522 432 129 13 25 0 0 42 175 748 1167
0 0 0 0 0 0 0 0 0 0 0 0 0 0 0 0 1 3 1 1 0 4 3 2 2 3 4 0 0 18 30 26 121 434 285 272 88 20 0 0 9 281 631
0 0 0 0 0 0 0 0 0 0 0 0 0 0 0 0 1 1 1 1 1 1 3 4 6 4 3 3 2 0 1 21 18 150 417 366 292 139 54 16 1 51 175
0 0 0 0 0 1 0 0 0 0 0 0 0 0 0 0 0 0 1 1 2 2 4 4 4 3 3 4 4 3 7 0 0 82 46 297 487 371 252 295 385 441 560
0 0 0 0 0 1 1 1 1 1 0 0 0 0 2 0 0 0 0 1 1 3 4 5 4 4 3 3 2 3 4 5 7 3 1 12 38 116 421 657 812 871 773
CIN
-82 -211 -358 -379 -353 -317 -269 -238 -272 -296 -294 -281 -241 -218 -197 -169 -164 -164 -143 -105 -83 -77 -76 -76 -84 -55 -44 -53 -49 -73 -83 -72 -67 -63 -52 -21 -9 -16 -42 -52 -48 -30 -23
-63 -155 -375 -366 -351 -327 -281 -228 -221 -235 -260 -254 -242 -224 -200 -182 -174 -146 -108 -98 -83 -69 -57 -74 -50 -40 -27 -28 -72 -83 -98 -81 -83 -70 -50 -10 -3 -11 -37 -24 -15 -61 -31
-52 -117 -287 -363 -340 -311 -272 -221 -202 -206 -228 -221 -214 -195 -202 -203 -195 -155 -105 -85 -51 -8 -37 -66 -51 -42 -55 -81 -86 -100 -113 -99 -89 -85 -52 -1 -16 -20 -20 -21 -40 -58 -27
-47 -111 -146 -330 -324 -309 -276 -230 -189 -180 -171 -171 -183 -173 -169 -176 -199 -177 -135 -97 -61 -13 -16 -51 -43 -43 -76 -107 -116 -122 -119 -107 -96 -93 -42 -12 -5 -46 -22 -12 -29 -45 -37
-47 -65 -109 -271 -285 -287 -264 -256 -209 -168 -157 -156 -147 -152 -161 -157 -171 -158 -132 -116 -84 -50 -52 -57 -34 -44 -102 -113 -118 -132 -133 -123 -101 -96 -23 -33 -3 -39 -20 -8 -21 -38 -40
-34 -18 -141 -229 -240 -255 -261 -221 -193 -158 -140 -138 -132 -132 -144 -147 -153 -162 -122 -89 -71 -63 -43 -34 -9 -26 -77 -108 -120 -123 -141 -130 -118 -37 -1 -4 -5 -48 -34 -24 -8 -16 -36
-21 -17 -95 -240 -232 -207 -219 -234 -188 -165 -131 -120 -116 -112 -112 -129 -129 -134 -128 -86 -53 -31 -25 -21 -11 -11 -40 -84 -108 -134 -147 -138 -89 -5 -2 -2 -7 -35 -34 -43 -31 -33 -25
-41 -16 -17 -149 -202 -187 -172 -173 -189 -178 -158 -131 -104 -90 -85 -91 -103 -103 -104 -92 -67 -38 -22 -20 -27 -21 -25 -60 -96 -131 -160 -164 -69 -10 -1 -1 -24 -34 -29 -27 -22 -59 -29
-97 -36 -5 -0 -55 -154 -161 -155 -156 -153 -159 -169 -138 -110 -81 -67 -66 -67 -68 -71 -60 -38 -29 -12 -12 -30 -30 -38 -82 -118 -165 -176 -80 -1 -1 -1 -48 -35 -27 -17 -35 -36 -45
-0 -0 -81 -16 -2 -0 -13 -140 -170 -162 -149 -157 -159 -154 -128 -88 -62 -52 -46 -45 -43 -33 -39 -36 -25 -27 -26 -26 -65 -117 -161 -169 -92 -19 -0 -10 -49 -54 -30 -2 -26 -34 -36
-0 -0 -0 -29 -73 -11 -0 -10 -96 -165 -153 -143 -133 -139 -141 -88 -48 -46 -35 -23 -36 -44 -34 -32 -32 -24 -17 -23 -71 -121 -143 -94 -36 -21 -2 -47 -46 -51 -45 -7 -10 -24 -35
-0 -0 -0 -0 -0 -87 -17 -1 -1 -3 -42 -51 -46 -15 -16 -3 -3 -1 -5 -59 -58 -37 -34 -30 -45 -48 -33 -26 -54 -99 -58 -49 -13 -2 -3 -58 -50 -57 -50 -30 -19 -23 -21
-0 -0 -0 -14 -190 -192 -37 -4 -2 -2 -1 -1 -0 -4 -3 -1 -1 -2 -1 -4 -12 -53 -4 -12 -15 -20 -29 -15 -2 -14 -19 -18 -7 -2 -2 -59 -51 -63 -78 -54 -46 -34 -28
-0 -0 -0 -0 -0 -224 -148 -4 -2 -1 -1 -2 -1 -0 -0 -0 -0 -0 -2 -7 -3 -0 -7 -3 -5 -1 -4 -1 -1 -2 -1 -3 -4 -3 -6 -55 -59 -75 -88 -61 -54 -48 -46
-0 -0 -0 -0 -0 -0 -274 -355 -69 -23 -6 -4 -4 -0 -2 -1 -2 -2 -1 -2 -1 -3 -5 -2 -1 -3 -5 -3 -3 -5 -5 -2 -1 -2 -1 -74 -71 -76 -95 -60 -34 -51 -65
-0 -0 -0 -0 -0 -0 -0 -0 -112 -451 -201 -75 -96 -165 -115 -73 -3 -0 -0 -0 -0 -2 -2 -4 -5 -1 -3 -3 -11 -12 -12 -5 -4 -0 -0 -54 -76 -70 -110 -74 -46 -31 -15
-0 -0 -0 -0 -0 -0 -0 -0 -0 -0 -0 -0 -40 -0 -0 -0 -23 -264 -52 -0 -0 -0 -0 -2 -3 -3 -1 -0 -4 -0 -2 -5 -4 -10 -5 -2 -59 -79 -115 -134 -76 -50 -37
-0 -0 -0 -0 -0 -0 -0 -0 -0 -0 -0 -0 -0 -0 -0 -0 -0 -0 -0 -127 -125 -130 -84 -3 -0 -14 -5 -3 -0 -4 -8 -1 -0 -2 -5 -4 -5 -14 -92 -124 -136 -110 -64
-0 -0 -0 -0 -0 -0 -0 -0 -0 -0 -0 -0 -0 -0 -0 -0 -0 -0 -0 -0 -0 -0 -200 -95 -39 -12 -1 -5 -2 -0 -0 -6 -1 -1 -1 -17 -13 -18 -9 -53 -89 -128 -109
-0 -0 -0 -0 -0 -0 -0 -0 -0 -0 -0 -0 -0 -0 -0 -0 -0 -0 -0 -0 -0 -0 -0 -29 -121 -31 -16 -18 -1 -0 -0 -1 -2 -2 -2 -2 -1 -38 -26 -23 -21 -70 -120
-0 -0 -0 -0 -0 -0 -0 -0 -0 -0 -0 -0 -0 -0 -0 -0 -1 -0 -0 -0 -0 -0 -0 -0 -1 -1 -1 -42 -0 -0 -7 -6 -9 -10 -50 -52 -65 -127 -180 -21 -38 -5 -20
-0 -0 -0 -0 -0 -0 -0 -0 -0 -0 -0 -0 -0 -0 -0 -0 -0 -0 -0 -0 -0 -0 -0 -0 -0 -0 -0 -0 -0 -27 -14 -8 -3 -11 -108 -240 -230 -0 -0 -207 -58 -33 -1
-1 -1 -0 -0 -0 -0 -0 -0 -0 -0 -0 -0 -0 -0 -0 -1 -0 -0 -0 -0 -0 -0 -0 -0 -0 -0 -0 -0 -0 -2 -0 -1 -6 -19 -52 -74 -167 -297 -0 -0 -172 -19 -9
-1 -0 -0 -0 -0 -0 -0 -0 -0 -0 -0 -0 -0 -0 -0 -0 -0 -0 -0 -0 -1 -0 -0 -0 -0 -0 -0 -0 -0 -0 -0 -1 -1 -2 -5 -36 -78 -89 -161 -261 -181 -110 -70
-0 -0 -0 -1 -0 -1 -0 -1 -0 -0 -0 -0 -0 -0 -0 -0 -0 -1 -0 -1 -0 -0 -0 -0 -0 -0 -0 -0 -0 -0 -0 -0 -0 -0 -1 -0 -10 -34 -58 -37 -26 -24 -6
-0 -0 -0 -0 -0 -1 -1 -0 -0 -0 -0 -0 -1 -0 -1 -0 -1 -1 -0 -0 -0 -0 -0 -0 -0 -0 -0 -0 -0 -0 -0 -0 -0 -1 -2 -1 -11 -20 -1 -3 -6 -6 -2
Wind_Speed
12 10 10 10 11 11 12 12 13 13 13 13 13 12 13 14 15 16 16 16 16 16 16 15 14 14 14 14 14 14 15 15 16 17 17 17 18 18 19 20 20 20 20
10 9 9 9 9 11 11 11 12 11 11 11 11 11 12 13 13 14 14 15 15 15 15 15 14 14 14 13 13 14 14 15 15 15 15 16 16 17 18 18 16 19 19
11 9 8 8 8 9 10 10 10 9 10 9 9 9 10 11 11 12 12 13 13 13 13 13 13 13 14 13 13 14 14 14 14 14 14 14 15 15 15 16 18 18 18
13 11 9 8 8 8 8 8 8 8 8 7 7 7 7 8 9 10 10 11 11 11 11 12 12 12 13 13 13 13 13 13 13 12 12 11 13 13 13 14 15 16 17
14 13 11 9 7 7 6 6 6 6 6 6 6 5 5 5 6 7 8 9 9 9 9 10 10 11 11 12 12 12 12 12 12 11 10 12 12 11 11 11 13 14 15
16 15 12 9 8 7 6 5 5 5 4 4 4 4 3 3 4 5 5 6 6 7 7 7 8 8 9 10 10 11 11 11 10 9 11 12 13 10 10 10 11 12 13
17 16 14 11 9 8 7 6 5 5 4 3 1 1 0 0 1 2 3 4 3 4 5 5 5 5 6 7 8 9 10 9 8 4 11 11 10 8 8 8 8 9 10
18 18 16 13 11 11 10 8 8 7 7 7 6 5 5 4 3 2 2 2 2 1 1 1 2 2 3 4 6 7 8 8 8 8 11 8 7 7 6 6 6 7 7
20 19 19 18 14 13 12 11 10 8 9 8 8 8 8 8 8 7 6 5 4 4 4 4 3 2 2 3 5 6 7 6 6 7 9 7 5 5 4 4 5 5 6
21 22 22 20 19 17 14 9 7 6 6 7 8 10 11 11 11 10 10 9 9 8 7 6 6 6 5 5 6 7 6 6 5 3 7 12 4 4 2 2 3 3 4
23 24 24 25 24 21 19 14 12 12 12 13 13 12 11 11 11 11 12 13 11 11 11 11 11 11 11 11 9 8 7 7 5 4 6 4 4 4 2 2 0 1 2
27 27 27 27 29 28 25 19 17 15 14 12 11 12 12 12 12 12 12 11 13 14 15 14 15 14 14 14 12 9 10 9 7 6 6 4 5 5 3 2 3 2 2
29 27 29 31 31 30 29 25 19 18 15 13 14 16 17 17 16 16 15 13 14 15 15 16 17 17 16 15 15 10 10 10 10 10 11 6 7 6 4 4 4 4 3
29 30 31 32 32 32 32 30 24 24 20 19 19 19 21 22 21 20 20 16 14 14 15 17 17 19 19 18 19 26 17 14 13 13 14 8 8 8 6 6 6 5 5
31 32 33 33 33 33 31 32 31 31 29 28 26 24 23 23 24 23 22 22 21 21 18 17 18 18 19 20 21 23 28 24 23 24 19 10 10 10 10 9 9 7 7
31 32 33 33 33 32 30 31 30 29 28 25 24 26 26 26 27 27 27 26 26 24 23 22 21 20 21 21 22 21 22 25 26 21 21 15 13 13 12 12 11 11 10
30 31 31 31 32 31 30 29 29 28 27 26 25 25 27 27 28 29 29 28 28 28 28 26 25 25 23 23 23 22 22 23 23 26 28 26 18 16 14 15 14 14 14
29 30 30 30 30 29 28 26 25 25 25 25 25 25 27 27 28 29 29 30 30 30 30 30 32 32 28 27 28 26 24 24 29 28 28 29 28 20 18 17 17 16 16
29 30 31 30 31 30 27 25 25 24 24 24 25 26 27 27 29 29 29 28 29 30 30 31 33 35 38 38 39 25 28 27 29 32 30 27 27 30 26 21 19 19 18
28 29 30 30 31 30 28 25 24 25 24 24 25 26 27 28 29 29 29 29 30 30 31 32 34 34 36 40 44 42 39 35 32 32 33 31 27 28 32 41 29 24 20
28 29 30 31 31 30 29 29 28 28 27 27 26 26 27 28 28 28 29 30 31 32 33 35 36 39 39 36 40 40 40 39 44 44 39 33 36 31 25 23 31 40 30
28 29 30 30 31 31 30 29 28 28 26 25 26 26 27 27 27 27 28 29 30 32 33 34 36 39 39 37 40 42 43 39 36 35 34 31 28 25 22 18 18 27 35
29 29 29 30 31 31 31 30 29 25 24 26 26 28 28 28 28 28 29 30 32 32 33 34 35 37 40 40 40 39 40 40 37 30 30 29 28 30 26 22 20 26 43
28 28 28 29 30 29 30 30 29 28 28 28 28 29 28 28 29 29 30 31 32 33 33 35 36 39 39 41 40 38 41 43 46 45 30 27 26 28 31 31 26 24 27
26 27 27 27 28 28 29 29 29 29 28 29 29 31 30 29 29 29 31 31 31 33 34 35 36 38 38 40 40 40 41 42 41 44 45 38 27 24 24 24 25 30 30
25 26 27 28 28 29 29 29 29 30 29 29 31 30 30 31 32 33 33 32 33 34 37 38 37 38 38 38 38 39 40 39 40 41 43 40 41 42 34 26 24 26 29
Wind_Direction
32 68 82 77 68 59 60 69 81 85 84 80 74 63 53 56 59 63 68 72 75 79 83 79 73 71 78 73 47 37 25 27 34 41 46 51 60 70 82 88 89 72 77
28 64 84 82 73 69 69 77 84 86 84 84 81 75 71 67 65 65 69 74 79 84 84 80 75 68 63 59 48 35 33 37 38 44 50 53 59 70 85 85 99 79 86
28 46 78 78 74 65 67 69 80 84 94 90 83 77 76 73 72 70 72 75 81 80 82 80 74 68 60 53 46 37 35 39 40 48 70 63 66 69 74 64 75 82 89
28 44 66 70 73 72 60 59 70 90 99 100 88 86 74 73 77 79 79 81 87 78 78 78 73 67 60 53 44 37 34 36 44 59 73 57 59 66 75 70 75 85 91
20 34 34 57 56 57 50 53 61 79 103 109 105 92 68 73 77 82 86 90 91 86 83 81 76 65 58 48 43 35 32 33 42 57 73 59 52 65 75 77 80 90 101
3 8 19 34 34 25 23 33 53 71 85 106 115 111 88 73 86 90 96 94 93 98 90 90 83 71 59 49 41 37 29 32 43 68 32 16 7 69 76 90 94 96 103
350 357 12 23 19 8 5 11 16 14 10 14 42 44 60 11 117 118 125 126 112 110 114 103 94 82 71 49 41 37 28 23 46 84 7 17 18 55 70 87 77 92 89
342 346 357 5 359 352 353 354 349 349 344 339 333 322 313 305 291 283 250 211 199 193 142 114 102 78 63 43 29 27 24 23 20 21 355 18 57 49 70 83 78 90 93
336 337 338 337 348 344 341 339 338 340 332 327 322 317 312 304 298 293 287 273 261 269 279 291 300 320 349 5 4 5 7 14 17 7 360 10 42 33 66 88 89 101 115
328 327 326 328 331 331 336 337 338 339 333 324 315 310 307 305 299 291 286 281 279 274 269 273 287 297 308 321 330 337 346 350 359 19 359 339 33 27 34 66 105 113 131
322 323 321 316 316 319 319 325 327 322 323 321 319 315 311 305 295 285 282 285 274 271 278 280 287 293 299 305 308 314 323 329 337 342 342 5 0 350 336 321 241 149 165
313 313 316 316 307 303 306 313 317 318 319 319 316 316 315 308 303 295 286 263 275 276 278 280 284 287 292 297 299 292 303 306 309 312 322 341 339 332 311 289 290 257 216
311 314 312 307 305 302 299 304 312 313 314 315 313 310 308 310 307 304 298 295 284 276 278 277 280 282 283 287 291 285 295 290 297 301 305 310 313 312 292 287 280 273 243
314 314 314 312 308 304 300 298 303 302 304 305 310 308 305 305 304 303 300 295 288 290 279 276 280 280 279 279 283 289 290 292 292 296 301 289 297 293 275 273 283 266 263
313 314 315 314 312 310 306 304 300 299 299 299 302 306 306 305 305 305 302 300 297 295 290 284 279 279 278 279 279 282 284 286 288 293 296 282 285 287 275 276 278 272 268
318 317 318 317 316 313 311 307 306 306 307 308 308 307 310 309 307 305 303 303 299 296 291 289 285 281 278 277 275 274 276 281 284 283 286 286 280 283 272 268 268 269 269
324 322 322 322 321 318 315 313 310 309 308 307 308 310 310 309 308 306 306 307 307 304 297 294 289 286 282 278 271 269 270 273 277 279 283 284 283 277 269 262 265 265 267
328 327 327 327 327 325 322 319 318 316 313 312 311 311 311 310 309 306 304 303 303 304 304 301 296 291 287 280 272 265 268 272 276 276 277 280 283 283 273 262 258 259 257
329 328 327 329 328 327 326 324 322 319 318 315 314 313 311 310 308 306 305 305 306 304 302 301 298 294 290 290 290 291 273 276 275 274 270 267 272 277 285 276 263 260 248
334 333 332 332 332 329 327 326 323 321 320 318 316 314 313 311 310 306 304 304 305 304 304 303 301 299 295 292 291 294 292 284 279 272 271 268 272 282 290 282 281 275 258
337 335 334 332 333 332 329 323 319 317 316 317 317 317 315 313 311 307 305 304 304 302 302 303 301 297 294 296 293 292 289 286 283 282 281 281 285 288 283 262 275 273 274
337 337 336 335 334 332 330 329 325 320 319 318 320 319 317 315 314 310 309 305 305 303 302 303 304 299 295 296 292 291 290 291 288 284 285 285 279 269 278 258 263 269 269
336 336 336 336 335 335 333 331 329 328 323 321 319 317 315 313 311 310 307 304 302 302 302 303 302 302 297 294 292 291 289 287 295 290 283 282 277 274 276 269 247 235 261
339 339 338 339 338 339 337 334 331 325 321 321 319 317 314 314 311 308 305 304 303 303 301 302 302 299 297 294 294 290 288 286 284 288 293 284 283 277 275 278 264 248 268
347 349 350 348 347 344 341 337 332 328 324 319 319 314 313 311 310 310 307 306 306 304 305 304 302 302 299 294 292 291 290 287 288 283 284 287 286 285 285 277 272 272 268
351 350 350 350 350 350 348 345 339 330 325 320 317 316 315 310 306 304 308 307 307 303 300 299 302 301 300 298 296 292 289 288 287 286 285 289 284 281 286 284 280 275 273